Location: *
(47.7167°N, 1.7333°W)
Time: 03:04:58
(UTC+00:00)

In-Cosmos 22 Rocket - Pass Details

Date: 09 April 2020
Orbit: 790 x 888 km, 81.2° (Epoch: 26 May)

Event Time Altitude Azimuth Distance (km) Brightness Sun altitude
Rises 20:20:51 0° 350° (N) 3,506 8.0 -15.2°
Reaches altitude 10° 20:23:21 10° 354° (N) 2,565 7.2 -15.5°
Maximum altitude 20:29:09 61° 75° (ENE) 1,003 4.4 -16.3°
Enters shadow 20:32:45 23° 149° (SSE) 1,773 5.4 -16.8°
